Time,TemperatureF,DewpointF,PressureIn,WindDirection,WindDirectionDegrees,WindSpeedMPH,WindSpeedGustMPH,Humidity,HourlyPrecipIn,Conditions,Clouds,dailyrainin,SolarRadiationWatts/m^2,SoftwareType,DateUTC
2013-11-08 00:02:00,48.6,27.1,29.75,North,5,0.0,0.0,43,0.00,,,0.00,0,WeatherCatV1.02B3,2013-11-08 08:02:00,
2013-11-08 00:07:00,48.2,27.3,29.75,North,5,1.0,1.0,44,0.00,,,0.00,0,WeatherCatV1.02B3,2013-11-08 08:07:00,
2013-11-08 00:12:00,48.0,27.1,29.75,North,5,0.0,0.0,44,0.00,,,0.00,0,WeatherCatV1.02B3,2013-11-08 08:12:00,
2013-11-08 00:17:00,47.8,27.5,29.75,North,5,0.0,0.0,45,0.00,,,0.00,0,WeatherCatV1.02B3,2013-11-08 08:17:00,
2013-11-08 00:22:00,47.5,27.2,29.75,North,5,0.0,1.0,45,0.00,,,0.00,0,WeatherCatV1.02B3,2013-11-08 08:22:00,
2013-11-08 00:27:00,47.2,27.0,29.75,North,5,0.0,0.0,45,0.00,,,0.00,0,WeatherCatV1.02B3,2013-11-08 08:27:00,
2013-11-08 00:32:00,46.9,26.7,29.75,North,5,0.0,1.0,45,0.00,,,0.00,0,WeatherCatV1.02B3,2013-11-08 08:32:00,
2013-11-08 00:37:00,46.7,27.0,29.75,North,5,0.0,0.0,46,0.00,,,0.00,0,WeatherCatV1.02B3,2013-11-08 08:37:00,
2013-11-08 00:42:00,46.4,27.3,29.75,North,5,0.0,0.0,47,0.00,,,0.00,0,WeatherCatV1.02B3,2013-11-08 08:42:00,
2013-11-08 00:47:00,46.2,27.1,29.75,North,5,0.0,1.0,47,0.00,,,0.00,0,WeatherCatV1.02B3,2013-11-08 08:47:00,
2013-11-08 00:52:00,45.9,27.3,29.75,North,5,0.0,0.0,48,0.00,,,0.00,0,WeatherCatV1.02B3,2013-11-08 08:52:00,
2013-11-08 00:57:00,45.7,26.6,29.75,North,5,0.0,0.0,47,0.00,,,0.00,0,WeatherCatV1.02B3,2013-11-08 08:57:00,
2013-11-08 01:02:00,45.8,27.2,29.75,North,5,0.0,0.0,48,0.00,,,0.00,0,WeatherCatV1.02B3,2013-11-08 09:02:00,
2013-11-08 01:07:00,45.7,27.1,29.75,North,5,0.0,0.0,48,0.00,,,0.00,0,WeatherCatV1.02B3,2013-11-08 09:07:00,
2013-11-08 01:12:00,45.7,27.1,29.75,North,5,0.0,0.0,48,0.00,,,0.00,0,WeatherCatV1.02B3,2013-11-08 09:12:00,
2013-11-08 01:17:00,45.6,27.1,29.75,North,5,0.0,0.0,48,0.00,,,0.00,0,WeatherCatV1.02B3,2013-11-08 09:17:00,
2013-11-08 01:22:00,45.5,27.0,29.75,North,5,0.0,0.0,48,0.00,,,0.00,0,WeatherCatV1.02B3,2013-11-08 09:22:00,
2013-11-08 01:27:00,45.4,26.9,29.75,North,5,0.0,0.0,48,0.00,,,0.00,0,WeatherCatV1.02B3,2013-11-08 09:27:00,
2013-11-08 01:32:00,45.2,26.7,29.75,North,5,0.0,0.0,48,0.00,,,0.00,0,WeatherCatV1.02B3,2013-11-08 09:32:00,
2013-11-08 01:37:00,45.1,26.6,29.75,North,5,0.0,0.0,48,0.00,,,0.00,0,WeatherCatV1.02B3,2013-11-08 09:37:00,
2013-11-08 01:42:00,44.9,27.4,29.75,North,5,0.0,0.0,50,0.00,,,0.00,0,WeatherCatV1.02B3,2013-11-08 09:42:00,
2013-11-08 01:47:00,44.8,27.3,29.75,North,5,0.0,1.0,50,0.00,,,0.00,0,WeatherCatV1.02B3,2013-11-08 09:47:00,
2013-11-08 01:52:00,44.6,27.1,29.75,North,5,0.0,0.0,50,0.00,,,0.00,0,WeatherCatV1.02B3,2013-11-08 09:52:00,
2013-11-08 01:57:00,44.4,26.9,29.75,North,5,0.0,0.0,50,0.00,,,0.00,0,WeatherCatV1.02B3,2013-11-08 09:57:00,
2013-11-08 02:02:00,44.3,26.8,29.75,North,5,0.0,0.0,50,0.00,,,0.00,0,WeatherCatV1.02B3,2013-11-08 10:02:00,
2013-11-08 02:07:00,44.1,26.7,29.75,North,5,0.0,0.0,50,0.00,,,0.00,0,WeatherCatV1.02B3,2013-11-08 10:07:00,
2013-11-08 02:12:00,43.9,26.5,29.75,North,5,0.0,0.0,50,0.00,,,0.00,0,WeatherCatV1.02B3,2013-11-08 10:12:00,
2013-11-08 02:17:00,43.6,26.2,29.75,North,5,0.0,1.0,50,0.00,,,0.00,0,WeatherCatV1.02B3,2013-11-08 10:17:00,
2013-11-08 02:22:00,43.5,26.1,29.75,North,5,0.0,0.0,50,0.00,,,0.00,0,WeatherCatV1.02B3,2013-11-08 10:22:00,
2013-11-08 02:27:00,43.4,27.0,29.75,North,5,0.0,0.0,52,0.00,,,0.00,0,WeatherCatV1.02B3,2013-11-08 10:27:00,
2013-11-08 02:32:00,43.3,26.9,29.75,North,5,0.0,0.0,52,0.00,,,0.00,0,WeatherCatV1.02B3,2013-11-08 10:32:00,
2013-11-08 02:37:00,43.2,27.2,29.75,North,5,0.0,0.0,53,0.00,,,0.00,0,WeatherCatV1.02B3,2013-11-08 10:37:00,
2013-11-08 02:42:00,43.1,27.1,29.75,North,5,0.0,0.0,53,0.00,,,0.00,0,WeatherCatV1.02B3,2013-11-08 10:42:00,
2013-11-08 02:47:00,43.1,27.1,29.75,North,5,0.0,0.0,53,0.00,,,0.00,0,WeatherCatV1.02B3,2013-11-08 10:47:00,
2013-11-08 02:52:00,42.9,27.0,29.75,North,5,0.0,0.0,53,0.00,,,0.00,0,WeatherCatV1.02B3,2013-11-08 10:52:00,
2013-11-08 02:57:00,42.9,27.4,29.75,NNE,27,2.0,2.0,54,0.00,,,0.00,0,WeatherCatV1.02B3,2013-11-08 10:57:00,
2013-11-08 03:02:00,43.0,28.0,29.75,NE,34,0.0,1.0,55,0.00,,,0.00,0,WeatherCatV1.02B3,2013-11-08 11:02:00,
2013-11-08 03:07:00,43.0,28.0,29.75,SSW,194,0.0,1.0,55,0.00,,,0.00,0,WeatherCatV1.02B3,2013-11-08 11:07:00,
2013-11-08 03:12:00,39.9,27.6,29.75,SSW,194,0.0,0.0,61,0.00,,,0.00,,WeatherCatV1.02B3,2013-11-08 11:12:00,
2013-11-08 03:17:00,39.9,28.3,29.75,SSW,194,0.0,0.0,63,0.00,,,0.00,,WeatherCatV1.02B3,2013-11-08 11:17:00,
2013-11-08 03:22:00,39.8,27.5,29.75,SSW,194,0.0,0.0,61,0.00,,,0.00,,WeatherCatV1.02B3,2013-11-08 11:22:00,
2013-11-08 03:27:00,39.7,27.4,29.75,SSW,194,0.0,0.0,61,0.00,,,0.00,,WeatherCatV1.02B3,2013-11-08 11:27:00,
2013-11-08 03:32:00,39.6,27.3,29.75,SSW,194,0.0,0.0,61,0.00,,,0.00,,WeatherCatV1.02B3,2013-11-08 11:32:00,
2013-11-08 03:37:00,39.5,27.2,29.75,SSW,194,0.0,0.0,61,0.00,,,0.00,,WeatherCatV1.02B3,2013-11-08 11:37:00,
2013-11-08 03:42:00,39.3,27.4,29.75,SSW,194,0.0,0.0,62,0.00,,,0.00,,WeatherCatV1.02B3,2013-11-08 11:42:00,
2013-11-08 03:47:00,39.2,27.7,29.75,SSW,194,0.0,0.0,63,0.00,,,0.00,,WeatherCatV1.02B3,2013-11-08 11:47:00,
2013-11-08 03:52:00,39.1,27.6,29.75,SSW,194,0.0,0.0,63,0.00,,,0.00,,WeatherCatV1.02B3,2013-11-08 11:52:00,
2013-11-08 03:57:00,38.9,26.2,29.75,SSW,194,0.0,0.0,60,0.00,,,0.00,,WeatherCatV1.02B3,2013-11-08 11:57:00,
2013-11-08 04:02:00,38.8,26.9,29.75,SSW,194,0.0,0.0,62,0.00,,,0.00,,WeatherCatV1.02B3,2013-11-08 12:02:00,
2013-11-08 04:07:00,38.8,28.4,29.75,SSW,194,0.0,0.0,66,0.00,,,0.00,,WeatherCatV1.02B3,2013-11-08 12:07:00,
2013-11-08 04:12:00,38.8,28.1,29.75,SSW,194,0.0,0.0,65,0.00,,,0.00,,WeatherCatV1.02B3,2013-11-08 12:12:00,
2013-11-08 04:17:00,39.0,27.9,29.75,SSW,194,0.0,0.0,64,0.00,,,0.00,,WeatherCatV1.02B3,2013-11-08 12:17:00,
2013-11-08 04:22:00,39.0,28.6,29.75,SSW,194,0.0,0.0,66,0.00,,,0.00,,WeatherCatV1.02B3,2013-11-08 12:22:00,
2013-11-08 04:27:00,39.1,28.7,29.75,SSW,194,0.0,0.0,66,0.00,,,0.00,,WeatherCatV1.02B3,2013-11-08 12:27:00,
2013-11-08 04:32:00,39.0,29.0,29.75,SSW,194,0.0,0.0,67,0.00,,,0.00,,WeatherCatV1.02B3,2013-11-08 12:32:00,
2013-11-08 04:37:00,38.9,27.4,29.75,SSW,194,0.0,0.0,63,0.00,,,0.00,,WeatherCatV1.02B3,2013-11-08 12:37:00,
2013-11-08 04:42:00,38.8,28.4,29.75,SSW,194,0.0,0.0,66,0.00,,,0.00,,WeatherCatV1.02B3,2013-11-08 12:42:00,
2013-11-08 04:47:00,38.7,28.0,29.75,SSW,194,0.0,0.0,65,0.00,,,0.00,,WeatherCatV1.02B3,2013-11-08 12:47:00,
2013-11-08 04:52:00,38.6,28.6,29.75,SSW,194,0.0,0.0,67,0.00,,,0.00,,WeatherCatV1.02B3,2013-11-08 12:52:00,
2013-11-08 04:57:00,38.5,28.1,29.75,SSW,194,0.0,0.0,66,0.00,,,0.00,,WeatherCatV1.02B3,2013-11-08 12:57:00,
2013-11-08 05:02:00,38.6,28.2,29.75,SSW,194,0.0,0.0,66,0.00,,,0.00,,WeatherCatV1.02B3,2013-11-08 13:02:00,
2013-11-08 05:07:00,38.5,28.5,29.75,SSW,194,0.0,0.0,67,0.00,,,0.00,,WeatherCatV1.02B3,2013-11-08 13:07:00,
2013-11-08 05:12:00,38.4,27.7,29.75,SSW,194,0.0,0.0,65,0.00,,,0.00,,WeatherCatV1.02B3,2013-11-08 13:12:00,
2013-11-08 05:17:00,38.3,28.3,29.75,SSW,194,0.0,0.0,67,0.00,,,0.00,,WeatherCatV1.02B3,2013-11-08 13:17:00,
2013-11-08 05:22:00,38.2,28.2,29.75,SSW,194,0.0,0.0,67,0.00,,,0.00,,WeatherCatV1.02B3,2013-11-08 13:22:00,
2013-11-08 05:27:00,38.2,28.2,29.75,SSW,194,0.0,0.0,67,0.00,,,0.00,,WeatherCatV1.02B3,2013-11-08 13:27:00,
2013-11-08 05:32:00,38.0,27.7,29.75,SSW,194,0.0,0.0,66,0.00,,,0.00,,WeatherCatV1.02B3,2013-11-08 13:32:00,
2013-11-08 05:37:00,38.0,28.0,29.75,SSW,194,0.0,0.0,67,0.00,,,0.00,,WeatherCatV1.02B3,2013-11-08 13:37:00,
2013-11-08 05:42:00,37.9,27.6,29.75,SSW,194,0.0,0.0,66,0.00,,,0.00,,WeatherCatV1.02B3,2013-11-08 13:42:00,
2013-11-08 05:47:00,37.9,27.2,29.75,SSW,194,0.0,0.0,65,0.00,,,0.00,,WeatherCatV1.02B3,2013-11-08 13:47:00,
2013-11-08 05:52:00,37.8,27.1,29.75,SSW,194,0.0,0.0,65,0.00,,,0.00,,WeatherCatV1.02B3,2013-11-08 13:52:00,
2013-11-08 05:57:00,37.7,27.0,29.75,SSW,194,0.0,0.0,65,0.00,,,0.00,,WeatherCatV1.02B3,2013-11-08 13:57:00,
2013-11-08 06:03:00,40.6,27.0,29.75,NE,39,0.0,0.0,58,0.00,,,0.00,0,WeatherCatV1.02B3,2013-11-08 14:03:00,
2013-11-08 06:08:00,40.5,26.9,29.75,NE,39,1.0,1.0,58,0.00,,,0.00,0,WeatherCatV1.02B3,2013-11-08 14:08:00,
2013-11-08 06:13:00,40.5,27.3,29.75,NE,39,0.0,0.0,59,0.00,,,0.00,0,WeatherCatV1.02B3,2013-11-08 14:13:00,
2013-11-08 06:18:00,40.5,27.7,29.75,NE,39,0.0,0.0,60,0.00,,,0.00,0,WeatherCatV1.02B3,2013-11-08 14:18:00,
2013-11-08 06:23:00,40.4,27.2,29.75,NE,39,0.0,0.0,59,0.00,,,0.00,0,WeatherCatV1.02B3,2013-11-08 14:23:00,
2013-11-08 06:28:00,40.4,27.6,29.75,NE,39,0.0,0.0,60,0.00,,,0.00,5,WeatherCatV1.02B3,2013-11-08 14:28:00,
2013-11-08 06:33:00,40.3,27.9,29.75,NE,39,0.0,1.0,61,0.00,,,0.00,7,WeatherCatV1.02B3,2013-11-08 14:33:00,
2013-11-08 06:38:00,40.2,27.8,29.75,NE,39,0.0,0.0,61,0.00,,,0.00,9,WeatherCatV1.02B3,2013-11-08 14:38:00,
2013-11-08 06:43:00,40.1,27.3,29.75,NE,39,0.0,0.0,60,0.00,,,0.00,11,WeatherCatV1.02B3,2013-11-08 14:43:00,
2013-11-08 06:48:00,40.1,27.3,29.75,NE,39,0.0,0.0,60,0.00,,,0.00,12,WeatherCatV1.02B3,2013-11-08 14:48:00,
2013-11-08 06:53:00,40.1,27.7,29.75,NE,39,0.0,1.0,61,0.00,,,0.00,12,WeatherCatV1.02B3,2013-11-08 14:53:00,
2013-11-08 06:58:00,40.2,27.8,29.75,NE,39,0.0,0.0,61,0.00,,,0.00,14,WeatherCatV1.02B3,2013-11-08 14:58:00,
2013-11-08 07:03:00,40.2,27.8,29.75,NE,39,0.0,0.0,61,0.00,,,0.00,16,WeatherCatV1.02B3,2013-11-08 15:03:00,
2013-11-08 07:08:00,40.3,27.9,29.75,NE,39,0.0,1.0,61,0.00,,,0.00,16,WeatherCatV1.02B3,2013-11-08 15:08:00,
2013-11-08 07:13:00,40.4,28.0,29.75,NE,39,0.0,0.0,61,0.00,,,0.00,18,WeatherCatV1.02B3,2013-11-08 15:13:00,
2013-11-08 07:18:00,40.4,28.4,29.75,NE,39,0.0,0.0,62,0.00,,,0.00,19,WeatherCatV1.02B3,2013-11-08 15:18:00,
2013-11-08 07:23:00,40.4,28.4,29.75,NE,39,0.0,1.0,62,0.00,,,0.00,19,WeatherCatV1.02B3,2013-11-08 15:23:00,
2013-11-08 07:28:00,40.4,28.4,29.75,NE,39,0.0,0.0,62,0.00,,,0.00,21,WeatherCatV1.02B3,2013-11-08 15:28:00,
2013-11-08 07:33:00,40.4,28.4,29.75,NE,39,0.0,0.0,62,0.00,,,0.00,32,WeatherCatV1.02B3,2013-11-08 15:33:00,
2013-11-08 07:38:00,40.4,28.4,29.75,NE,39,0.0,0.0,62,0.00,,,0.00,49,WeatherCatV1.02B3,2013-11-08 15:38:00,
2013-11-08 07:43:00,40.5,28.5,29.75,NE,39,0.0,0.0,62,0.00,,,0.00,49,WeatherCatV1.02B3,2013-11-08 15:43:00,
2013-11-08 07:48:00,41.0,29.0,29.75,NE,39,1.0,1.0,62,0.00,,,0.00,65,WeatherCatV1.02B3,2013-11-08 15:48:00,
2013-11-08 07:53:00,41.6,29.2,29.75,NE,39,0.0,1.0,61,0.00,,,0.00,39,WeatherCatV1.02B3,2013-11-08 15:53:00,
2013-11-08 07:58:00,42.1,29.6,29.75,NE,39,0.0,0.0,61,0.00,,,0.00,127,WeatherCatV1.02B3,2013-11-08 15:58:00,
2013-11-08 08:03:00,43.0,30.5,29.75,NE,39,0.0,0.0,61,0.00,,,0.00,258,WeatherCatV1.02B3,2013-11-08 16:03:00,
2013-11-08 08:08:00,43.8,30.0,29.75,NE,39,0.0,0.0,58,0.00,,,0.00,91,WeatherCatV1.02B3,2013-11-08 16:08:00,
2013-11-08 08:13:00,44.4,30.1,29.75,NE,39,0.0,0.0,57,0.00,,,0.00,47,WeatherCatV1.02B3,2013-11-08 16:13:00,
2013-11-08 08:18:00,45.1,30.4,29.75,NE,39,0.0,0.0,56,0.00,,,0.00,53,WeatherCatV1.02B3,2013-11-08 16:18:00,
2013-11-08 08:23:00,46.4,30.7,29.75,NE,39,0.0,0.0,54,0.00,,,0.00,67,WeatherCatV1.02B3,2013-11-08 16:23:00,
2013-11-08 08:28:00,47.4,29.7,29.75,NE,39,0.0,0.0,50,0.00,,,0.00,162,WeatherCatV1.02B3,2013-11-08 16:28:00,
2013-11-08 08:33:00,48.1,30.3,29.75,NE,39,0.0,0.0,50,0.00,,,0.00,338,WeatherCatV1.02B3,2013-11-08 16:33:00,
2013-11-08 08:38:00,48.8,31.0,29.75,NE,39,1.0,1.0,50,0.00,,,0.00,352,WeatherCatV1.02B3,2013-11-08 16:38:00,
2013-11-08 08:43:00,49.9,31.0,29.75,NE,39,0.0,0.0,48,0.00,,,0.00,366,WeatherCatV1.02B3,2013-11-08 16:43:00,
2013-11-08 08:48:00,51.1,31.0,29.75,NE,39,0.0,1.0,46,0.00,,,0.00,378,WeatherCatV1.02B3,2013-11-08 16:48:00,
2013-11-08 08:53:00,53.2,31.3,29.75,NE,39,0.0,1.0,43,0.00,,,0.00,392,WeatherCatV1.02B3,2013-11-08 16:53:00,
2013-11-08 08:58:00,54.8,32.2,29.75,NE,39,0.0,0.0,42,0.00,,,0.00,404,WeatherCatV1.02B3,2013-11-08 16:58:00,
2013-11-08 09:03:00,56.3,32.9,29.75,NE,39,0.0,0.0,41,0.00,,,0.00,417,WeatherCatV1.02B3,2013-11-08 17:03:00,
2013-11-08 09:08:00,57.5,30.1,29.75,NNE,30,0.0,0.0,35,0.00,,,0.00,431,WeatherCatV1.02B3,2013-11-08 17:08:00,
2013-11-08 09:13:00,58.6,28.8,29.75,NNE,30,0.0,1.0,32,0.00,,,0.00,441,WeatherCatV1.02B3,2013-11-08 17:13:00,
2013-11-08 09:18:00,59.8,29.1,29.75,NNE,28,0.0,0.0,31,0.00,,,0.00,452,WeatherCatV1.02B3,2013-11-08 17:18:00,
2013-11-08 09:23:00,61.1,28.6,29.75,NE,48,0.0,1.0,29,0.00,,,0.00,462,WeatherCatV1.02B3,2013-11-08 17:23:00,
2013-11-08 09:28:00,62.6,27.2,29.75,NE,41,1.0,3.0,26,0.00,,,0.00,475,WeatherCatV1.02B3,2013-11-08 17:28:00,
2013-11-08 09:33:00,64.2,28.6,29.75,NNE,17,0.0,1.0,26,0.00,,,0.00,482,WeatherCatV1.02B3,2013-11-08 17:33:00,
2013-11-08 09:38:00,65.7,27.9,29.75,NE,51,0.0,1.0,24,0.00,,,0.00,494,WeatherCatV1.02B3,2013-11-08 17:38:00,
2013-11-08 09:43:00,67.1,28.1,29.75,NE,51,0.0,1.0,23,0.00,,,0.00,501,WeatherCatV1.02B3,2013-11-08 17:43:00,
2013-11-08 09:48:00,68.4,28.1,29.75,NE,52,0.0,1.0,22,0.00,,,0.00,513,WeatherCatV1.02B3,2013-11-08 17:48:00,
2013-11-08 09:53:00,69.5,27.9,29.75,NE,52,0.0,1.0,21,0.00,,,0.00,520,WeatherCatV1.02B3,2013-11-08 17:53:00,
2013-11-08 09:58:00,70.7,27.7,29.75,South,184,0.0,2.0,20,0.00,,,0.00,527,WeatherCatV1.02B3,2013-11-08 17:58:00,
2013-11-08 10:03:00,71.9,28.6,29.75,SSW,195,0.0,1.0,20,0.00,,,0.00,538,WeatherCatV1.02B3,2013-11-08 18:03:00,
2013-11-08 10:08:00,73.0,28.3,29.75,SSE,168,0.0,2.0,19,0.00,,,0.00,545,WeatherCatV1.02B3,2013-11-08 18:08:00,
2013-11-08 10:13:00,74.2,29.3,29.75,SSE,153,0.0,1.0,19,0.00,,,0.00,552,WeatherCatV1.02B3,2013-11-08 18:13:00,
2013-11-08 10:18:00,75.2,30.1,29.75,NW,320,2.0,5.0,19,0.00,,,0.00,559,WeatherCatV1.02B3,2013-11-08 18:18:00,
2013-11-08 10:23:00,75.8,29.3,29.75,NW,308,3.0,4.0,18,0.00,,,0.00,566,WeatherCatV1.02B3,2013-11-08 18:23:00,
2013-11-08 10:28:00,76.1,33.3,29.75,West,275,1.0,3.0,21,0.00,,,0.00,571,WeatherCatV1.02B3,2013-11-08 18:28:00,
2013-11-08 10:33:00,76.2,33.4,29.75,ENE,73,1.0,2.0,21,0.00,,,0.00,578,WeatherCatV1.02B3,2013-11-08 18:33:00,
2013-11-08 10:38:00,76.8,35.1,29.75,WSW,250,0.0,1.0,22,0.00,,,0.00,582,WeatherCatV1.02B3,2013-11-08 18:38:00,
2013-11-08 10:43:00,77.5,36.8,29.75,WNW,292,1.0,3.0,23,0.00,,,0.00,589,WeatherCatV1.02B3,2013-11-08 18:43:00,
2013-11-08 10:48:00,78.0,38.3,29.75,NNW,347,1.0,2.0,24,0.00,,,0.00,592,WeatherCatV1.02B3,2013-11-08 18:48:00,
2013-11-08 10:53:00,78.4,37.5,29.75,NNW,338,0.0,3.0,23,0.00,,,0.00,598,WeatherCatV1.02B3,2013-11-08 18:53:00,
2013-11-08 10:58:00,78.7,40.9,29.75,NW,304,3.0,6.0,26,0.00,,,0.00,601,WeatherCatV1.02B3,2013-11-08 18:58:00,
2013-11-08 11:03:00,78.5,40.7,29.75,WNW,284,3.0,5.0,26,0.00,,,0.00,605,WeatherCatV1.02B3,2013-11-08 19:03:00,
2013-11-08 11:08:00,78.1,41.4,29.75,WNW,293,3.0,7.0,27,0.00,,,0.00,608,WeatherCatV1.02B3,2013-11-08 19:08:00,
2013-11-08 11:13:00,77.6,41.9,29.75,NNW,329,5.0,9.0,28,0.00,,,0.00,610,WeatherCatV1.02B3,2013-11-08 19:13:00,
2013-11-08 11:18:00,77.6,41.9,29.75,WNW,285,2.0,4.0,28,0.00,,,0.00,612,WeatherCatV1.02B3,2013-11-08 19:18:00,
2013-11-08 11:23:00,77.5,42.7,29.75,West,274,3.0,8.0,29,0.00,,,0.00,613,WeatherCatV1.02B3,2013-11-08 19:23:00,
2013-11-08 11:28:00,77.5,41.8,29.75,WNW,297,7.0,8.0,28,0.00,,,0.00,615,WeatherCatV1.02B3,2013-11-08 19:28:00,
2013-11-08 11:33:00,77.3,41.6,29.75,WSW,256,7.0,8.0,28,0.00,,,0.00,613,WeatherCatV1.02B3,2013-11-08 19:33:00,
2013-11-08 11:38:00,77.3,41.6,29.75,NW,325,4.0,7.0,28,0.00,,,0.00,615,WeatherCatV1.02B3,2013-11-08 19:38:00,
2013-11-08 11:43:00,77.4,40.8,29.75,WNW,283,3.0,6.0,27,0.00,,,0.00,615,WeatherCatV1.02B3,2013-11-08 19:43:00,
2013-11-08 11:48:00,77.6,41.0,29.75,NW,304,6.0,6.0,27,0.00,,,0.00,617,WeatherCatV1.02B3,2013-11-08 19:48:00,
2013-11-08 11:53:00,78.0,39.3,29.75,West,273,4.0,7.0,25,0.00,,,0.00,615,WeatherCatV1.02B3,2013-11-08 19:53:00,
2013-11-08 11:58:00,78.3,38.5,29.75,West,277,4.0,7.0,24,0.00,,,0.00,615,WeatherCatV1.02B3,2013-11-08 19:58:00,
2013-11-08 12:03:00,78.8,38.9,29.75,NNW,346,1.0,1.0,24,0.00,,,0.00,613,WeatherCatV1.02B3,2013-11-08 20:03:00,
2013-11-08 12:08:00,79.1,38.1,29.75,West,268,2.0,5.0,23,0.00,,,0.00,612,WeatherCatV1.02B3,2013-11-08 20:08:00,
2013-11-08 12:13:00,79.4,38.4,29.75,NE,55,1.0,7.0,23,0.00,,,0.00,612,WeatherCatV1.02B3,2013-11-08 20:13:00,
2013-11-08 12:18:00,80.0,36.5,29.75,SW,230,1.0,4.0,21,0.00,,,0.00,608,WeatherCatV1.02B3,2013-11-08 20:18:00,
2013-11-08 12:23:00,80.3,38.0,29.75,West,268,5.0,5.0,22,0.00,,,0.00,606,WeatherCatV1.02B3,2013-11-08 20:23:00,
2013-11-08 12:28:00,80.4,39.2,29.75,NNE,28,0.0,3.0,23,0.00,,,0.00,605,WeatherCatV1.02B3,2013-11-08 20:28:00,
2013-11-08 12:33:00,80.5,39.3,29.75,NE,38,3.0,3.0,23,0.00,,,0.00,598,WeatherCatV1.02B3,2013-11-08 20:33:00,
2013-11-08 12:38:00,80.5,39.3,29.75,NW,322,1.0,3.0,23,0.00,,,0.00,596,WeatherCatV1.02B3,2013-11-08 20:38:00,
2013-11-08 12:43:00,80.3,40.2,29.75,WNW,288,2.0,3.0,24,0.00,,,0.00,589,WeatherCatV1.02B3,2013-11-08 20:43:00,
2013-11-08 12:48:00,80.0,42.0,29.75,NW,319,1.0,3.0,26,0.00,,,0.00,578,WeatherCatV1.02B3,2013-11-08 20:48:00,
2013-11-08 12:53:00,79.5,43.5,29.75,West,279,1.0,4.0,28,0.00,,,0.00,577,WeatherCatV1.02B3,2013-11-08 20:53:00,
2013-11-08 12:58:00,79.1,45.0,29.75,North,349,3.0,3.0,30,0.00,,,0.00,571,WeatherCatV1.02B3,2013-11-08 20:58:00,
2013-11-08 13:03:00,78.7,45.5,29.75,WNW,294,3.0,8.0,31,0.00,,,0.00,563,WeatherCatV1.02B3,2013-11-08 21:03:00,
2013-11-08 13:08:00,78.6,47.1,29.75,SW,216,4.0,4.0,33,0.00,,,0.00,554,WeatherCatV1.02B3,2013-11-08 21:08:00,
2013-11-08 13:13:00,78.5,47.8,29.75,SW,232,0.0,3.0,34,0.00,,,0.00,545,WeatherCatV1.02B3,2013-11-08 21:13:00,
2013-11-08 13:18:00,78.5,47.8,29.75,West,275,2.0,5.0,34,0.00,,,0.00,536,WeatherCatV1.02B3,2013-11-08 21:18:00,
2013-11-08 13:23:00,78.0,46.5,29.75,West,271,6.0,8.0,33,0.00,,,0.00,531,WeatherCatV1.02B3,2013-11-08 21:23:00,
2013-11-08 13:28:00,77.2,45.0,29.75,West,280,2.0,5.0,32,0.00,,,0.00,524,WeatherCatV1.02B3,2013-11-08 21:28:00,
2013-11-08 13:33:00,76.6,41.9,29.75,West,277,3.0,6.0,29,0.00,,,0.00,515,WeatherCatV1.02B3,2013-11-08 21:33:00,
2013-11-08 13:38:00,76.2,40.7,29.75,WNW,293,5.0,5.0,28,0.00,,,0.00,508,WeatherCatV1.02B3,2013-11-08 21:38:00,
2013-11-08 13:43:00,76.5,41.0,29.75,ENE,78,0.0,3.0,28,0.00,,,0.00,501,WeatherCatV1.02B3,2013-11-08 21:43:00,
2013-11-08 13:48:00,76.8,44.7,29.75,NW,311,0.0,3.0,32,0.00,,,0.00,490,WeatherCatV1.02B3,2013-11-08 21:48:00,
2013-11-08 13:53:00,77.6,46.2,29.75,East,88,1.0,4.0,33,0.00,,,0.00,480,WeatherCatV1.02B3,2013-11-08 21:53:00,
2013-11-08 13:58:00,78.1,46.6,29.75,NW,309,2.0,4.0,33,0.00,,,0.00,468,WeatherCatV1.02B3,2013-11-08 21:58:00,
2013-11-08 14:03:00,78.3,48.4,29.75,NNE,17,4.0,5.0,35,0.00,,,0.00,455,WeatherCatV1.02B3,2013-11-08 22:03:00,
2013-11-08 14:08:00,78.1,46.6,29.75,ENE,59,1.0,6.0,33,0.00,,,0.00,445,WeatherCatV1.02B3,2013-11-08 22:08:00,
2013-11-08 14:13:00,77.9,45.6,29.75,North,5,1.0,2.0,32,0.00,,,0.00,432,WeatherCatV1.02B3,2013-11-08 22:13:00,
2013-11-08 14:18:00,77.9,44.8,29.75,NNE,20,0.0,3.0,31,0.00,,,0.00,424,WeatherCatV1.02B3,2013-11-08 22:18:00,
2013-11-08 14:23:00,77.7,43.8,29.75,WSW,254,4.0,4.0,30,0.00,,,0.00,410,WeatherCatV1.02B3,2013-11-08 22:23:00,
2013-11-08 14:28:00,77.5,43.6,29.75,NW,315,2.0,2.0,30,0.00,,,0.00,397,WeatherCatV1.02B3,2013-11-08 22:28:00,
2013-11-08 14:33:00,77.3,42.5,29.75,WNW,286,3.0,6.0,29,0.00,,,0.00,387,WeatherCatV1.02B3,2013-11-08 22:33:00,
2013-11-08 14:38:00,77.1,43.3,29.75,NNE,26,0.0,3.0,30,0.00,,,0.00,373,WeatherCatV1.02B3,2013-11-08 22:38:00,
2013-11-08 14:43:00,76.9,43.9,29.75,WSW,237,3.0,6.0,31,0.00,,,0.00,362,WeatherCatV1.02B3,2013-11-08 22:43:00,
2013-11-08 14:48:00,76.6,43.7,29.75,West,265,5.0,8.0,31,0.00,,,0.00,352,WeatherCatV1.02B3,2013-11-08 22:48:00,
2013-11-08 14:53:00,76.1,41.5,29.75,West,281,4.0,6.0,29,0.00,,,0.00,339,WeatherCatV1.02B3,2013-11-08 22:53:00,
2013-11-08 14:58:00,75.8,41.3,29.75,WNW,294,2.0,6.0,29,0.00,,,0.00,329,WeatherCatV1.02B3,2013-11-08 22:58:00,
2013-11-08 15:03:00,75.6,41.1,29.75,West,269,4.0,9.0,29,0.00,,,0.00,313,WeatherCatV1.02B3,2013-11-08 23:03:00,
2013-11-08 15:08:00,75.1,41.5,29.75,WNW,286,4.0,7.0,30,0.00,,,0.00,299,WeatherCatV1.02B3,2013-11-08 23:08:00,
2013-11-08 15:13:00,74.7,42.0,29.75,WSW,252,6.0,7.0,31,0.00,,,0.00,165,WeatherCatV1.02B3,2013-11-08 23:13:00,
2013-11-08 15:18:00,74.3,42.5,29.75,West,269,4.0,4.0,32,0.00,,,0.00,47,WeatherCatV1.02B3,2013-11-08 23:18:00,
2013-11-08 15:23:00,73.9,42.2,29.75,West,273,4.0,4.0,32,0.00,,,0.00,88,WeatherCatV1.02B3,2013-11-08 23:23:00,
2013-11-08 15:28:00,73.6,41.9,29.75,WNW,290,2.0,4.0,32,0.00,,,0.00,30,WeatherCatV1.02B3,2013-11-08 23:28:00,
2013-11-08 15:33:00,73.4,41.7,29.75,West,279,3.0,4.0,32,0.00,,,0.00,33,WeatherCatV1.02B3,2013-11-08 23:33:00,
2013-11-08 15:38:00,73.1,41.5,29.75,NNW,340,0.0,4.0,32,0.00,,,0.00,28,WeatherCatV1.02B3,2013-11-08 23:38:00,
2013-11-08 15:43:00,72.7,41.9,29.75,WSW,243,1.0,3.0,33,0.00,,,0.00,26,WeatherCatV1.02B3,2013-11-08 23:43:00,
2013-11-08 15:48:00,72.3,42.3,29.75,West,273,4.0,6.0,34,0.00,,,0.00,26,WeatherCatV1.02B3,2013-11-08 23:48:00,
2013-11-08 15:53:00,71.9,42.8,29.75,WNW,288,0.0,2.0,35,0.00,,,0.00,25,WeatherCatV1.02B3,2013-11-08 23:53:00,
2013-11-08 15:58:00,71.6,43.2,29.75,North,5,0.0,1.0,36,0.00,,,0.00,25,WeatherCatV1.02B3,2013-11-08 23:58:00,
2013-11-08 16:03:00,71.3,43.7,29.75,East,97,2.0,3.0,37,0.00,,,0.00,23,WeatherCatV1.02B3,2013-11-09 00:03:00,
2013-11-08 16:08:00,71.0,44.1,29.75,SSW,211,0.0,0.0,38,0.00,,,0.00,21,WeatherCatV1.02B3,2013-11-09 00:08:00,
2013-11-08 16:13:00,70.7,44.5,29.75,West,271,3.0,3.0,39,0.00,,,0.00,21,WeatherCatV1.02B3,2013-11-09 00:13:00,
2013-11-08 16:18:00,70.2,44.1,29.75,NW,316,1.0,1.0,39,0.00,,,0.00,19,WeatherCatV1.02B3,2013-11-09 00:18:00,
2013-11-08 16:23:00,69.8,43.0,29.75,NW,305,1.0,2.0,38,0.00,,,0.00,18,WeatherCatV1.02B3,2013-11-09 00:23:00,
2013-11-08 16:28:00,69.3,41.9,29.75,NW,305,1.0,1.0,37,0.00,,,0.00,16,WeatherCatV1.02B3,2013-11-09 00:28:00,
2013-11-08 16:33:00,68.7,41.4,29.75,NW,305,0.0,3.0,37,0.00,,,0.00,14,WeatherCatV1.02B3,2013-11-09 00:33:00,
2013-11-08 16:38:00,68.1,40.8,29.75,WNW,300,1.0,2.0,37,0.00,,,0.00,12,WeatherCatV1.02B3,2013-11-09 00:38:00,
2013-11-08 16:43:00,67.2,39.3,29.75,WNW,290,0.0,1.0,36,0.00,,,0.00,11,WeatherCatV1.02B3,2013-11-09 00:43:00,
2013-11-08 16:48:00,66.5,39.4,29.75,WNW,290,0.0,1.0,37,0.00,,,0.00,9,WeatherCatV1.02B3,2013-11-09 00:48:00,
2013-11-08 16:53:00,66.0,38.3,29.75,WNW,290,0.0,0.0,36,0.00,,,0.00,5,WeatherCatV1.02B3,2013-11-09 00:53:00,
2013-11-08 16:58:00,65.5,37.8,29.75,WNW,290,0.0,1.0,36,0.00,,,0.00,0,WeatherCatV1.02B3,2013-11-09 00:58:00,
2013-11-08 17:03:00,65.0,37.4,29.75,WSW,244,0.0,1.0,36,0.00,,,0.00,0,WeatherCatV1.02B3,2013-11-09 01:03:00,
2013-11-08 17:08:00,64.7,37.8,29.75,WSW,244,0.0,0.0,37,0.00,,,0.00,0,WeatherCatV1.02B3,2013-11-09 01:08:00,
2013-11-08 17:13:00,64.4,38.2,29.75,WSW,244,0.0,0.0,38,0.00,,,0.00,0,WeatherCatV1.02B3,2013-11-09 01:13:00,
2013-11-08 17:18:00,64.1,39.3,29.75,WSW,244,0.0,0.0,40,0.00,,,0.00,0,WeatherCatV1.02B3,2013-11-09 01:18:00,
2013-11-08 17:23:00,63.8,39.0,29.75,WSW,244,0.0,0.0,40,0.00,,,0.00,0,WeatherCatV1.02B3,2013-11-09 01:23:00,
2013-11-08 17:28:00,63.5,39.4,29.75,WSW,244,0.0,0.0,41,0.00,,,0.00,0,WeatherCatV1.02B3,2013-11-09 01:28:00,
2013-11-08 17:33:00,63.1,38.4,29.75,WSW,244,0.0,0.0,40,0.00,,,0.00,0,WeatherCatV1.02B3,2013-11-09 01:33:00,
2013-11-08 17:38:00,62.8,38.7,29.75,WSW,244,0.0,0.0,41,0.00,,,0.00,0,WeatherCatV1.02B3,2013-11-09 01:38:00,
2013-11-08 17:43:00,62.4,39.0,29.75,WSW,244,0.0,0.0,42,0.00,,,0.00,0,WeatherCatV1.02B3,2013-11-09 01:43:00,
2013-11-08 17:48:00,61.9,38.6,29.75,WSW,244,0.0,0.0,42,0.00,,,0.00,0,WeatherCatV1.02B3,2013-11-09 01:48:00,
2013-11-08 17:53:00,61.4,39.3,29.75,WSW,244,0.0,0.0,44,0.00,,,0.00,0,WeatherCatV1.02B3,2013-11-09 01:53:00,
2013-11-08 17:58:00,60.9,38.8,29.75,WSW,244,0.0,0.0,44,0.00,,,0.00,0,WeatherCatV1.02B3,2013-11-09 01:58:00,
2013-11-08 18:03:00,60.3,39.4,29.75,WSW,244,0.0,0.0,46,0.00,,,0.00,0,WeatherCatV1.02B3,2013-11-09 02:03:00,
2013-11-08 18:08:00,59.8,39.0,29.75,WSW,244,0.0,0.0,46,0.00,,,0.00,0,WeatherCatV1.02B3,2013-11-09 02:08:00,
2013-11-08 18:13:00,59.5,39.8,29.75,WSW,244,0.0,0.0,48,0.00,,,0.00,0,WeatherCatV1.02B3,2013-11-09 02:13:00,
2013-11-08 18:18:00,59.0,40.4,29.75,WSW,244,0.0,0.0,50,0.00,,,0.00,0,WeatherCatV1.02B3,2013-11-09 02:18:00,
2013-11-08 18:23:00,58.6,40.5,29.75,NNW,329,0.0,1.0,51,0.00,,,0.00,0,WeatherCatV1.02B3,2013-11-09 02:23:00,
2013-11-08 18:28:00,58.2,40.7,29.75,NNW,335,0.0,1.0,52,0.00,,,0.00,0,WeatherCatV1.02B3,2013-11-09 02:28:00,
2013-11-08 18:33:00,57.9,40.4,29.75,NNW,335,0.0,2.0,52,0.00,,,0.00,0,WeatherCatV1.02B3,2013-11-09 02:33:00,
2013-11-08 18:38:00,57.7,40.7,29.75,NNW,336,0.0,0.0,53,0.00,,,0.00,0,WeatherCatV1.02B3,2013-11-09 02:38:00,
2013-11-08 18:43:00,57.5,40.0,29.75,NNW,336,0.0,0.0,52,0.00,,,0.00,0,WeatherCatV1.02B3,2013-11-09 02:43:00,
2013-11-08 18:48:00,57.3,39.3,29.75,NNW,336,0.0,0.0,51,0.00,,,0.00,0,WeatherCatV1.02B3,2013-11-09 02:48:00,
2013-11-08 18:53:00,57.0,39.5,29.75,NNW,336,0.0,0.0,52,0.00,,,0.00,0,WeatherCatV1.02B3,2013-11-09 02:53:00,
2013-11-08 18:58:00,56.6,39.7,29.75,NNW,336,0.0,0.0,53,0.00,,,0.00,0,WeatherCatV1.02B3,2013-11-09 02:58:00,
2013-11-08 19:03:00,56.1,39.2,29.75,NNW,336,0.0,0.0,53,0.00,,,0.00,0,WeatherCatV1.02B3,2013-11-09 03:03:00,
2013-11-08 19:08:00,55.7,39.3,29.75,NNW,336,0.0,1.0,54,0.00,,,0.00,0,WeatherCatV1.02B3,2013-11-09 03:08:00,
2013-11-08 19:13:00,55.4,39.0,29.75,NNW,336,0.0,0.0,54,0.00,,,0.00,0,WeatherCatV1.02B3,2013-11-09 03:13:00,
2013-11-08 19:18:00,54.9,39.0,29.75,North,0,1.0,2.0,55,0.00,,,0.00,0,WeatherCatV1.02B3,2013-11-09 03:18:00,
2013-11-08 19:23:00,54.6,38.8,29.75,NNE,18,0.0,1.0,55,0.00,,,0.00,0,WeatherCatV1.02B3,2013-11-09 03:23:00,
2013-11-08 19:28:00,54.5,38.7,29.75,NNE,21,0.0,1.0,55,0.00,,,0.00,0,WeatherCatV1.02B3,2013-11-09 03:28:00,
2013-11-08 19:33:00,54.4,38.6,29.75,NNE,21,0.0,1.0,55,0.00,,,0.00,0,WeatherCatV1.02B3,2013-11-09 03:33:00,
2013-11-08 19:38:00,54.3,38.5,29.75,NNE,33,0.0,1.0,55,0.00,,,0.00,0,WeatherCatV1.02B3,2013-11-09 03:38:00,
2013-11-08 19:43:00,54.1,38.8,29.75,NNE,30,0.0,2.0,56,0.00,,,0.00,0,WeatherCatV1.02B3,2013-11-09 03:43:00,
2013-11-08 19:48:00,54.0,38.7,29.75,North,355,3.0,4.0,56,0.00,,,0.00,0,WeatherCatV1.02B3,2013-11-09 03:48:00,
2013-11-08 19:53:00,53.9,38.6,29.75,NNE,12,1.0,1.0,56,0.00,,,0.00,0,WeatherCatV1.02B3,2013-11-09 03:53:00,
2013-11-08 19:58:00,53.9,38.1,29.75,NNE,12,0.0,0.0,55,0.00,,,0.00,0,WeatherCatV1.02B3,2013-11-09 03:58:00,
2013-11-08 20:03:00,53.8,37.5,29.75,NNE,12,0.0,0.0,54,0.00,,,0.00,0,WeatherCatV1.02B3,2013-11-09 04:03:00,
2013-11-08 20:08:00,53.6,37.4,29.75,NNE,12,0.0,0.0,54,0.00,,,0.00,0,WeatherCatV1.02B3,2013-11-09 04:08:00,
2013-11-08 20:13:00,53.3,37.5,29.75,NNE,12,0.0,0.0,55,0.00,,,0.00,0,WeatherCatV1.02B3,2013-11-09 04:13:00,
2013-11-08 20:18:00,53.1,36.9,29.75,NNE,12,0.0,0.0,54,0.00,,,0.00,0,WeatherCatV1.02B3,2013-11-09 04:18:00,
2013-11-08 20:23:00,52.7,36.5,29.75,NNE,12,0.0,0.0,54,0.00,,,0.00,0,WeatherCatV1.02B3,2013-11-09 04:23:00,
2013-11-08 20:28:00,52.4,36.7,29.75,NNE,12,0.0,0.0,55,0.00,,,0.00,0,WeatherCatV1.02B3,2013-11-09 04:28:00,
2013-11-08 20:33:00,51.9,36.2,29.75,NNE,12,0.0,0.0,55,0.00,,,0.00,0,WeatherCatV1.02B3,2013-11-09 04:33:00,
2013-11-08 20:38:00,51.4,36.7,29.75,NNE,12,0.0,0.0,57,0.00,,,0.00,0,WeatherCatV1.02B3,2013-11-09 04:38:00,
2013-11-08 20:43:00,50.9,36.7,29.75,NNE,12,0.0,0.0,58,0.00,,,0.00,0,WeatherCatV1.02B3,2013-11-09 04:43:00,
2013-11-08 20:48:00,50.5,36.7,29.75,NNE,12,0.0,0.0,59,0.00,,,0.00,0,WeatherCatV1.02B3,2013-11-09 04:48:00,
2013-11-08 20:53:00,50.1,36.3,29.75,NNE,12,0.0,1.0,59,0.00,,,0.00,0,WeatherCatV1.02B3,2013-11-09 04:53:00,
2013-11-08 20:58:00,49.8,36.5,29.75,NNE,12,0.0,0.0,60,0.00,,,0.00,0,WeatherCatV1.02B3,2013-11-09 04:58:00,
2013-11-08 21:01:00,49.6,35.9,29.75,NNE,12,0.0,0.0,59,0.00,,,0.00,0,WeatherCatV1.02B3,2013-11-09 05:01:00,
2013-11-08 21:06:00,49.3,36.0,29.75,NNE,12,0.0,0.0,60,0.00,,,0.00,0,WeatherCatV1.02B3,2013-11-09 05:06:00,
2013-11-08 21:11:00,49.1,35.8,29.75,NNE,12,0.0,0.0,60,0.00,,,0.00,0,WeatherCatV1.02B3,2013-11-09 05:11:00,
2013-11-08 21:16:00,48.8,36.0,29.75,NNE,12,0.0,0.0,61,0.00,,,0.00,0,WeatherCatV1.02B3,2013-11-09 05:16:00,
2013-11-08 21:21:00,48.5,35.3,29.75,NNE,12,0.0,0.0,60,0.00,,,0.00,0,WeatherCatV1.02B3,2013-11-09 05:21:00,
2013-11-08 21:26:00,48.3,35.5,29.75,NNE,12,0.0,0.0,61,0.00,,,0.00,0,WeatherCatV1.02B3,2013-11-09 05:26:00,
2013-11-08 21:31:00,48.0,35.2,29.75,NNE,12,0.0,0.0,61,0.00,,,0.00,0,WeatherCatV1.02B3,2013-11-09 05:31:00,
2013-11-08 21:36:00,47.8,35.4,29.75,NNE,12,0.0,0.0,62,0.00,,,0.00,0,WeatherCatV1.02B3,2013-11-09 05:36:00,
2013-11-08 21:41:00,47.5,35.1,29.75,NNE,12,0.0,0.0,62,0.00,,,0.00,0,WeatherCatV1.02B3,2013-11-09 05:41:00,
2013-11-08 21:46:00,47.2,35.3,29.75,NNE,12,0.0,1.0,63,0.00,,,0.00,0,WeatherCatV1.02B3,2013-11-09 05:46:00,
2013-11-08 21:51:00,47.0,35.9,29.75,NNE,12,0.0,0.0,65,0.00,,,0.00,0,WeatherCatV1.02B3,2013-11-09 05:51:00,
2013-11-08 21:56:00,46.9,35.8,29.75,NNE,12,0.0,0.0,65,0.00,,,0.00,0,WeatherCatV1.02B3,2013-11-09 05:56:00,
2013-11-08 22:01:00,46.7,35.6,29.75,NNE,12,0.0,0.0,65,0.00,,,0.00,0,WeatherCatV1.02B3,2013-11-09 06:01:00,
2013-11-08 22:06:00,46.6,35.5,29.75,NNE,12,0.0,0.0,65,0.00,,,0.00,0,WeatherCatV1.02B3,2013-11-09 06:06:00,
2013-11-08 22:11:00,46.4,35.3,29.75,NNE,12,0.0,0.0,65,0.00,,,0.00,0,WeatherCatV1.02B3,2013-11-09 06:11:00,
2013-11-08 22:16:00,46.3,35.2,29.75,NNE,12,0.0,0.0,65,0.00,,,0.00,0,WeatherCatV1.02B3,2013-11-09 06:16:00,
2013-11-08 22:21:00,46.0,34.9,29.75,NNE,12,0.0,0.0,65,0.00,,,0.00,0,WeatherCatV1.02B3,2013-11-09 06:21:00,
2013-11-08 22:26:00,45.9,34.8,29.75,NNE,12,0.0,0.0,65,0.00,,,0.00,0,WeatherCatV1.02B3,2013-11-09 06:26:00,
2013-11-08 22:31:00,45.6,34.5,29.75,NNE,12,0.0,0.0,65,0.00,,,0.00,0,WeatherCatV1.02B3,2013-11-09 06:31:00,
2013-11-08 22:36:00,45.4,34.7,29.75,NNE,12,0.0,0.0,66,0.00,,,0.00,0,WeatherCatV1.02B3,2013-11-09 06:36:00,
2013-11-08 22:41:00,45.2,34.5,29.75,NNE,12,0.0,0.0,66,0.00,,,0.00,0,WeatherCatV1.02B3,2013-11-09 06:41:00,
2013-11-08 22:46:00,45.1,34.8,29.75,NNE,12,0.0,0.0,67,0.00,,,0.00,0,WeatherCatV1.02B3,2013-11-09 06:46:00,
2013-11-08 22:51:00,44.9,34.6,29.75,NNE,12,0.0,0.0,67,0.00,,,0.00,0,WeatherCatV1.02B3,2013-11-09 06:51:00,
2013-11-08 22:56:00,44.7,34.4,29.75,NNE,12,0.0,0.0,67,0.00,,,0.00,0,WeatherCatV1.02B3,2013-11-09 06:56:00,
2013-11-08 23:01:00,44.5,34.6,29.75,NNE,12,0.0,0.0,68,0.00,,,0.00,0,WeatherCatV1.02B3,2013-11-09 07:01:00,
2013-11-08 23:06:00,44.3,34.4,29.75,NNE,12,0.0,1.0,68,0.00,,,0.00,0,WeatherCatV1.02B3,2013-11-09 07:06:00,
2013-11-08 23:11:00,44.1,34.2,29.75,NNE,12,0.0,0.0,68,0.00,,,0.00,0,WeatherCatV1.02B3,2013-11-09 07:11:00,
2013-11-08 23:16:00,44.0,34.1,29.75,NNE,12,0.0,0.0,68,0.00,,,0.00,0,WeatherCatV1.02B3,2013-11-09 07:16:00,
2013-11-08 23:21:00,43.8,33.9,29.75,NNE,12,0.0,0.0,68,0.00,,,0.00,0,WeatherCatV1.02B3,2013-11-09 07:21:00,
2013-11-08 23:26:00,43.6,34.1,29.75,NNE,12,0.0,0.0,69,0.00,,,0.00,0,WeatherCatV1.02B3,2013-11-09 07:26:00,
2013-11-08 23:31:00,43.4,33.9,29.75,NNE,12,0.0,0.0,69,0.00,,,0.00,0,WeatherCatV1.02B3,2013-11-09 07:31:00,
2013-11-08 23:36:00,43.3,33.8,29.75,NNE,12,0.0,0.0,69,0.00,,,0.00,0,WeatherCatV1.02B3,2013-11-09 07:36:00,
2013-11-08 23:41:00,43.1,33.6,29.75,NNE,12,0.0,0.0,69,0.00,,,0.00,0,WeatherCatV1.02B3,2013-11-09 07:41:00,
2013-11-08 23:46:00,43.0,33.9,29.75,NNE,12,0.0,0.0,70,0.00,,,0.00,0,WeatherCatV1.02B3,2013-11-09 07:46:00,
2013-11-08 23:51:00,42.9,33.8,29.75,NNE,12,0.0,0.0,70,0.00,,,0.00,0,WeatherCatV1.02B3,2013-11-09 07:51:00,
2013-11-08 23:56:00,42.8,33.7,29.75,North,11,0.0,0.0,70,0.00,,,0.00,0,WeatherCatV1.02B3,2013-11-09 07:56:00,